Zurück zum Katalog

STARLINK-3294

AktivKommunikationVLEO
NORAD 50829·PAYLOAD·🇺🇸 United States

Gestartet Jan 6, 2022 von Cape Canaveral Space Force Station

Loading…

Nächste Überflüge (nächste 24 Stunden)

TLE

AktuellSource: CelesTrak SupGP

Epoche: Sep 15, 2026, 01:37 UTC

1 50829C 22001AC  26258.06784722 -.00023275  00000+0 -70650-3 0  2587
2 50829  53.1599  27.4211 0001058  86.1126  62.3731 15.33550823    11

Verfolge STARLINK-3294 in Echtzeit mit AllMySat

Download on the App Store